IRIDIUM 53 [+] (25173 NORAD) Tracking and Keplerian Element Data

This shows tracking and keplerian element data for the satellite.

Feedback or suggestion? Click here.




ElementValue
Catalog25173
NameIRIDIUM 53 [+]
Epoch Orbit6816
Epoch Day198.51664946
Epoch Year2018
RAAN185.1367
Inclination86.398
Eccentricity0.000222
Argument of Perigee82.2475
Mean Anonmoly277.8973
Mean Motion14.34218312
Decay Rate-3.3E-07
L11 25173U 98010E 18198.51664946 -.00000033 00000-0 -18876-4 0 9996
L22 25173 86.3980 185.1367 0002220 82.2475 277.8973 14.34218312 68162

Live tracking and technical data element details for IRIDIUM 53 [+] (NORAD 25173). IRIDIUM 53 [+] can be tracked NOW for your location showing map with azimuth and elevation plus other details from your city location.

Track the satellite on the map from your city or location and see movement details for azimuth, elevation, latitude, longitude, range, height, and movement on the map or in text.







IsCatalogInMostPopularTable: catalog: 25173, numindb: 33
Update: records affected: 1



GetName: 25173 IRIDIUM 53 [+]

Hit Count: updated at: Fri, 20 Jul 2018 07:02:21 GMT